TimeEDT,TemperatureF,Dew PointF,Humidity,Sea Level PressureIn,VisibilityMPH,Wind Direction,Wind SpeedMPH,Gust SpeedMPH,PrecipitationIn,Events,Conditions,WindDirDegrees,DateUTC
12:53 AM,71.1,64.9,81,29.83,10.0,WNW,8.1,-,N/A,,Clear,290,2013-05-05 04:53:00
1:53 AM,71.1,64.9,81,29.81,10.0,WNW,6.9,-,N/A,,Clear,290,2013-05-05 05:53:00
2:53 AM,70.0,64.0,81,29.80,10.0,WNW,6.9,-,N/A,,Clear,290,2013-05-05 06:53:00
3:53 AM,69.1,64.0,84,29.80,10.0,West,5.8,-,N/A,,Clear,270,2013-05-05 07:53:00
4:53 AM,69.1,64.9,87,29.80,10.0,West,6.9,-,N/A,,Clear,260,2013-05-05 08:53:00
5:53 AM,68.0,66.0,93,29.82,10.0,WNW,5.8,-,N/A,,Mostly Cloudy,290,2013-05-05 09:53:00
6:53 AM,69.1,66.0,90,29.84,10.0,WNW,5.8,-,N/A,,Mostly Cloudy,300,2013-05-05 10:53:00
7:53 AM,69.1,66.0,90,29.87,10.0,WNW,8.1,-,N/A,,Mostly Cloudy,290,2013-05-05 11:53:00
8:53 AM,73.0,64.9,76,29.88,10.0,NW,8.1,17.3,N/A,,Mostly Cloudy,320,2013-05-05 12:53:00
9:53 AM,73.9,64.9,73,29.90,10.0,NW,11.5,18.4,N/A,,Mostly Cloudy,320,2013-05-05 13:53:00
10:53 AM,75.0,63.0,66,29.91,10.0,NW,9.2,-,N/A,,Mostly Cloudy,310,2013-05-05 14:53:00
11:53 AM,78.8,64.0,60,29.91,10.0,NW,11.5,17.3,N/A,,Mostly Cloudy,310,2013-05-05 15:53:00
12:53 PM,80.1,61.0,52,29.89,10.0,NNW,10.4,-,N/A,,Scattered Clouds,340,2013-05-05 16:53:00
1:53 PM,80.6,60.8,51,29.89,10.0,NW,9.2,-,N/A,,Scattered Clouds,320,2013-05-05 17:53:00
2:53 PM,81.0,60.1,49,29.88,10.0,Variable,6.9,-,N/A,,Partly Cloudy,0,2013-05-05 18:53:00
3:53 PM,82.9,57.0,41,29.86,10.0,WNW,8.1,-,N/A,,Partly Cloudy,300,2013-05-05 19:53:00
4:53 PM,82.0,57.9,44,29.86,10.0,Variable,3.5,-,N/A,,Scattered Clouds,0,2013-05-05 20:53:00
5:53 PM,82.0,55.9,41,29.86,10.0,NW,8.1,-,N/A,,Scattered Clouds,310,2013-05-05 21:53:00
6:53 PM,82.0,55.9,41,29.87,10.0,Variable,4.6,-,N/A,,Scattered Clouds,0,2013-05-05 22:53:00
7:53 PM,78.8,53.6,42,29.89,10.0,NNW,4.6,-,N/A,,Scattered Clouds,330,2013-05-05 23:53:00
8:53 PM,78.1,53.1,42,29.92,10.0,NNW,4.6,-,N/A,,Partly Cloudy,330,2013-05-06 00:53:00
9:53 PM,75.9,54.0,46,29.94,10.0,Variable,6.9,-,N/A,,Clear,0,2013-05-06 01:53:00
10:53 PM,75.9,54.0,46,29.94,10.0,Calm,Calm,-,N/A,,Clear,0,2013-05-06 02:53:00
11:53 PM,73.0,54.0,51,29.96,10.0,NW,3.5,-,N/A,,Clear,320,2013-05-06 03:53:00